CAPE
0 0 0 0 0 0 0 0 0 0 0 0 0 0 0 0 0 0 0 0 0 0 0 0 0 0 0 0 3 2 5 6
0 0 0 0 0 0 0 0 0 0 0 0 0 0 0 0 0 0 0 0 0 0 0 0 0 0 2 3 3 3 3 7
0 0 0 0 0 0 0 0 0 0 0 0 0 0 0 0 0 0 0 0 0 0 0 0 1 0 4 4 5 3 4 9
0 0 0 0 0 0 0 0 0 0 0 0 0 0 0 0 0 0 0 0 0 0 0 1 2 2 2 5 7 7 6 4
0 0 0 0 0 0 0 0 0 0 0 0 0 0 0 0 0 0 0 0 0 0 0 0 1 1 5 6 5 8 6 7
0 0 0 0 0 0 0 0 0 0 0 0 0 0 0 0 0 0 0 0 0 0 0 0 1 1 5 8 8 9 8 8
0 0 0 0 0 0 0 0 0 0 0 0 0 0 0 0 0 0 0 0 0 0 0 0 0 0 2 4 7 9 10 11
0 0 0 0 0 0 0 0 0 0 0 0 0 0 0 0 0 0 0 0 0 0 0 0 0 0 0 0 1 5 5 9
0 0 0 0 0 0 0 0 0 0 0 0 0 0 0 0 0 0 0 0 0 0 0 0 0 0 0 0 0 0 0 0
0 0 0 0 0 0 0 0 0 0 0 0 0 0 0 0 0 0 0 0 0 0 0 0 0 0 0 0 0 0 0 0
0 0 0 0 1 0 0 0 0 0 0 0 0 0 0 0 0 0 0 0 0 0 0 0 0 0 0 0 0 0 0 0
0 0 0 0 0 0 0 0 0 0 0 0 0 0 0 0 0 0 0 0 0 0 0 0 0 0 0 0 0 0 0 0
0 0 0 0 0 0 1 0 1 0 0 0 0 0 0 0 0 0 0 0 0 0 0 1 2 3 2 3 2 1 4 4
0 0 0 2 0 0 3 3 0 0 5 23 0 0 0 1 1 0 2 2 2 0 1 3 4 1 3 5 6 2 6 6
3 2 0 0 0 1 0 0 0 0 0 12 9 5 3 5 6 6 6 6 6 7 10 10 9 5 2 4 5 6 4 5
0 0 0 0 0 0 0 0 0 0 0 0 4 9 4 2 3 3 6 11 11 9 9 13 13 12 9 9 13 12 11 9
0 0 0 0 0 0 0 0 0 0 0 0 0 1 0 1 1 3 1 5 7 9 12 11 16 13 0 0 7 18 15 16
0 0 0 0 0 0 0 0 0 0 0 0 2 2 1 2 1 0 0 0 3 6 8 7 11 9 0 0 0 12 14 16
0 0 0 0 0 0 0 0 0 0 0 0 4 4 1 2 0 0 0 0 0 0 0 1 2 9 0 0 0 0 1 4
CIN
-0 -0 -0 -0 -0 -0 -0 -0 -0 -0 -0 -0 -0 -0 -0 -0 -0 -0 -0 -0 -0 -0 -0 -0 -0 -0 -0 -0 -0 -0 -0 -0
-0 -0 -0 -0 -0 -0 -0 -0 -0 -0 -0 -0 -0 -0 -0 -0 -0 -0 -0 -0 -0 -0 -0 -0 -0 -0 -0 -0 -0 -0 -0 -0
-0 -0 -0 -0 -0 -0 -0 -0 -0 -0 -0 -0 -0 -0 -0 -0 -0 -0 -0 -0 -0 -0 -0 -0 -0 -0 -0 -0 -0 -0 -0 -0
-0 -0 -0 -0 -0 -0 -0 -0 -0 -0 -0 -0 -0 -0 -0 -0 -0 -0 -0 -0 -0 -0 -0 -0 -0 -0 -0 -0 -0 -0 -0 -0
-0 -0 -0 -0 -0 -0 -0 -0 -0 -0 -0 -0 -0 -0 -0 -0 -0 -0 -0 -0 -0 -0 -0 -0 -0 -0 -0 -0 -0 -0 -0 -0
-0 -0 -0 -0 -0 -0 -0 -0 -0 -0 -0 -0 -0 -0 -0 -0 -0 -0 -0 -0 -0 -0 -0 -0 -0 -0 -0 -0 -0 -0 -0 -0
-0 -0 -0 -0 -0 -0 -0 -0 -0 -0 -0 -0 -0 -0 -0 -0 -0 -0 -0 -0 -0 -0 -0 -0 -0 -0 -0 -0 -0 -0 -0 -0
-0 -0 -0 -0 -0 -0 -0 -0 -0 -0 -0 -0 -0 -0 -0 -0 -0 -0 -0 -0 -0 -0 -0 -0 -0 -0 -0 -0 -0 -0 -0 -0
-0 -0 -0 -0 -0 -0 -0 -0 -0 -0 -0 -0 -0 -0 -0 -0 -0 -0 -0 -0 -0 -0 -0 -0 -0 -0 -0 -0 -0 -0 -0 -0
-0 -0 -0 -0 -0 -0 -0 -0 -0 -0 -0 -0 -0 -0 -0 -0 -0 -0 -0 -0 -0 -0 -0 -0 -0 -0 -0 -0 -0 -0 -0 -0
-0 -0 -0 -0 -0 -0 -0 -0 -0 -0 -0 -0 -0 -0 -0 -0 -0 -0 -0 -0 -0 -0 -0 -0 -0 -0 -0 -0 -0 -0 -0 -0
-0 -0 -0 -0 -0 -0 -0 -0 -0 -0 -0 -0 -0 -0 -0 -0 -0 -0 -0 -0 -0 -0 -0 -0 -0 -0 -0 -0 -0 -0 -0 -0
-0 -0 -0 -0 -0 -0 -0 -0 -0 -0 -0 -0 -0 -0 -0 -0 -0 -0 -0 -0 -0 -0 -0 -0 -0 -0 -0 -0 -0 -0 -0 -0
-0 -0 -0 -0 -0 -0 -0 -0 -0 -0 -0 -0 -0 -0 -0 -0 -0 -0 -0 -0 -0 -0 -0 -0 -0 -0 -0 -0 -0 -0 -0 -0
-0 -0 -0 -0 -0 -0 -0 -0 -0 -0 -0 -0 -0 -0 -0 -0 -0 -0 -0 -0 -0 -0 -0 -0 -0 -0 -0 -0 -0 -0 -0 -0
-0 -0 -0 -0 -0 -0 -0 -0 -0 -0 -0 -0 -0 -0 -0 -0 -0 -0 -0 -0 -0 -0 -0 -0 -0 -0 -0 -0 -0 -0 -0 -0
-0 -0 -0 -0 -0 -0 -0 -0 -0 -0 -0 -0 -0 -0 -0 -0 -0 -0 -0 -0 -0 -0 -0 -0 -0 -0 -0 -0 -0 -0 -0 -0
-0 -0 -0 -0 -0 -0 -0 -0 -0 -0 -0 -0 -0 -0 -0 -0 -0 -0 -0 -0 -0 -0 -0 -0 -0 -0 -0 -0 -0 -0 -0 -0
-0 -0 -0 -0 -0 -0 -0 -0 -0 -0 -0 -0 -0 -0 -0 -0 -0 -0 -0 -0 -0 -0 -0 -0 -0 -0 -0 -0 -0 -0 -0 -0
Wind_Speed
16 14 12 11 10 9 8 6 6 6 4 4 4 4 5 4 5 6 8 7 9 8 7 8 9 7 8 9 12 10 11 11
16 14 13 12 11 10 8 7 6 4 3 2 2 3 4 4 5 7 7 7 8 8 7 8 8 7 8 10 9 12 9 10
17 16 14 13 12 10 9 8 6 3 2 3 2 2 4 5 4 5 7 7 8 7 8 8 8 7 9 10 11 9 8 10
20 18 16 14 13 11 9 8 7 5 4 4 3 3 2 3 3 3 5 6 7 7 8 8 8 7 8 9 10 11 8 9
20 19 17 15 13 11 10 8 7 5 2 4 1 1 2 4 2 4 3 6 7 8 8 7 8 6 8 8 8 9 8 9
21 20 18 15 14 12 10 9 8 7 5 3 3 3 4 3 2 2 4 5 7 8 8 8 8 6 7 8 9 9 7 7
21 20 18 15 14 13 11 11 9 7 6 5 3 5 4 3 4 2 4 4 4 8 8 8 7 7 8 7 8 8 7 7
22 22 19 17 17 15 11 10 9 8 7 6 5 6 5 6 3 4 4 4 5 8 8 8 7 8 7 7 7 7 8 6
23 22 19 18 17 15 13 12 10 8 8 7 5 5 4 4 5 4 5 5 5 7 7 7 7 8 8 7 6 6 7 7
22 22 19 17 16 13 15 13 11 10 9 8 7 6 6 6 6 4 4 5 5 5 6 7 8 9 8 7 6 8 8 8
20 17 18 16 11 11 13 12 12 11 9 8 6 7 7 7 5 5 6 5 5 5 6 8 9 9 9 9 8 9 9 8
19 15 17 15 14 10 10 12 12 11 9 8 8 8 7 7 6 5 5 5 5 6 6 8 9 9 10 10 10 11 11 10
15 18 14 15 17 15 9 10 8 9 10 10 9 8 7 7 6 6 5 4 5 6 7 7 8 9 9 10 10 10 10 11
9 15 17 12 16 11 12 11 13 11 6 5 10 9 8 8 6 6 6 5 6 7 7 7 8 8 8 8 9 9 9 10
13 13 13 16 15 13 15 15 14 14 13 8 8 8 8 8 6 5 5 5 6 6 6 6 6 7 9 8 8 9 9 9
19 18 16 16 17 16 16 15 15 15 14 13 11 9 9 8 7 6 5 5 5 5 6 5 6 7 7 6 6 8 9 9
19 19 19 19 19 18 17 17 16 16 15 14 14 13 12 10 10 9 8 6 6 5 6 5 6 6 7 8 6 6 8 9
20 20 19 18 18 18 18 18 17 16 15 14 14 13 12 11 10 9 8 8 6 6 5 5 6 6 5 6 3 6 7 8
15 13 14 16 17 18 17 17 17 16 15 14 14 13 13 11 10 8 7 7 6 6 5 4 5 7 7 3 6 7 7 8
Wind_Direction
171 167 155 146 135 129 128 121 113 105 116 120 101 86 72 52 48 37 21 20 6 357 359 358 346 345 350 346 339 339 325 334
171 163 157 149 145 152 148 135 132 165 157 156 147 85 83 66 47 38 24 19 10 7 357 355 348 350 347 350 344 341 337 349
177 168 164 163 159 155 147 139 125 110 115 75 30 60 74 56 48 51 29 25 13 6 5 352 353 345 354 357 356 347 343 349
179 175 171 167 166 162 155 140 126 96 88 135 121 112 134 165 93 55 53 27 24 18 13 354 354 357 356 356 355 358 345 347
183 178 172 173 164 158 155 144 132 117 109 116 186 354 135 67 40 54 57 35 35 23 8 5 2 357 0 355 359 355 352 353
184 182 175 171 159 162 158 152 141 129 122 121 183 132 105 98 93 68 60 60 47 25 11 8 5 0 2 356 4 6 4 360
184 183 172 166 165 164 164 163 146 132 136 128 140 117 95 97 63 56 54 40 36 31 19 12 3 359 359 353 357 8 14 4
183 184 175 169 171 170 164 162 148 152 145 134 121 104 95 86 59 51 47 45 33 30 18 13 7 3 359 354 0 359 4 2
189 183 180 172 172 170 165 168 157 156 145 131 125 112 92 85 65 54 54 46 40 27 18 16 11 11 3 5 8 4 1 2
189 181 182 172 175 169 174 166 161 165 153 142 136 125 102 91 79 65 66 52 45 25 23 20 23 20 12 0 16 7 2 11
185 184 180 175 136 180 168 167 167 162 152 146 143 123 103 94 83 74 68 67 47 37 37 31 32 25 19 13 21 16 13 20
183 180 180 169 162 181 165 170 165 161 153 150 137 118 114 103 97 85 80 75 61 54 48 48 35 26 25 24 25 20 19 18
188 175 173 165 169 171 165 156 138 168 156 150 133 127 118 113 97 93 91 90 73 62 58 54 51 31 32 27 19 29 19 21
171 168 181 157 172 169 159 158 162 160 133 139 139 136 121 105 109 94 76 71 66 63 62 59 52 44 41 36 24 33 31 22
170 169 184 176 174 165 173 168 164 164 159 137 132 125 127 124 123 114 103 91 87 83 73 61 61 47 41 34 35 30 37 34
188 184 183 180 179 177 176 171 170 168 166 159 151 141 134 134 139 133 128 116 101 91 84 73 67 62 44 34 39 39 38 37
187 186 185 186 181 179 176 175 175 171 171 168 158 157 154 156 153 158 141 131 125 111 96 80 79 73 56 52 31 41 42 36
186 188 184 183 181 178 179 177 172 174 176 168 166 169 169 165 162 151 152 146 132 130 133 135 104 86 61 54 44 61 45 34
175 175 175 176 175 179 174 175 169 177 177 171 172 176 171 168 167 160 151 145 142 127 116 102 89 76 57 45 293 60 56 51